Regional Weather Roundup
Issued by NWS Charleston, SC

Current Version | Previous Version | Graphics & Text | Print | Product List | Glossary On
Versions: 1 2 3 4 5 6 7 8 9 10 11 12 13 14 15 16 17 18 19 20 21 22 23 24 25 26 27 28 29 30 31 32 33 34 35 36 37 38 39 40 41 42 43 44 45 46 47 48 49 50
000 ASUS42 KCHS 282227 RWRCHS REGIONAL WEATHER ROUNDUP NATIONAL WEATHER SERVICE CHARLESTON SC 600 PM EDT TUE MAR 28 2017 NOTE: "FAIR" INDICATES FEW OR NO CLOUDS BELOW 12,000 FEET WITH NO SIGNIFICANT WEATHER AND/OR OBSTRUCTIONS TO VISIBILITY. NOT ALL STATIONS ARE QUALITY CONTROLLED. USE DATA WITH CAUTION... ESPECIALLY DEWPOINT OBSERVATIONS. SCZ027-030-031-034>040-042>050-282300- ...SOUTHEAST SOUTH CAROLINA... CITY SKY/WX TMP DP RH WIND PRES REMARKS N CHARLESTON PTSUNNY 76 60 57 S12 29.89S WATERFRONT PRK N/A 71 63 75 SW13G20 29.88S JOHNS ISLAND FAIR 72 63 73 S14G21 29.90F PINOPOLIS N/A 75 63 64 W8 29.81F MONCKS CORNER LGT RAIN 77 57 50 W5 29.89R SUMMERVILLE FAIR 73 68 83 CALM 29.90S BEAUFORT MCAS LGT RAIN 70 66 87 NW9 29.92R FOG BEAUFORT ARPT CLOUDY 72 63 73 SW5 29.91R HILTON HEAD IS MOSUNNY 75 63 64 S14 29.92 WALTERBORO LGT RAIN 73 64 73 CALM 29.91R ALLENDALE FAIR 82 55 39 VRB5 29.88F ...SOUTHERN MIDLANDS AND PEE DEE... CITY SKY/WX TMP DP RH WIND PRES REMARKS GEORGETOWN MOCLDY 73 61 64 SW9 29.89S KINGSTREE FAIR 82 54 36 SW12 29.86S ORANGEBURG SUNNY 83 56 39 W9 29.88F BARNWELL FAIR 84 59 42 W10 29.89S AIKEN FAIR 79 55 44 W9G17 29.93S MANNING FAIR 81 55 41 NW7 29.87F COLUMBIA MOSUNNY 82 58 43 W6 29.87F SUMTER MOSUNNY 83 57 40 W15 29.85S FLORENCE SUNNY 82 57 42 W7 29.86R MYRTLE BEACH PTSUNNY 72 61 68 S17 29.87F N MYRTLE BEACH SUNNY 68 61 78 SW18 29.86F $$ GAZ063-065-086>088-099>101-113>116-118-119-134>141-150-282300- ...SOUTHEAST GEORGIA... CITY SKY/WX TMP DP RH WIND PRES REMARKS SAVANNAH ARPT CLOUDY 83 55 38 W13 29.91S HUNTER AAF MOSUNNY 83 62 47 W9 29.89S FORT STEWART CLOUDY 83 57 40 W7 29.90S STATESBORO MOSUNNY 83 62 49 W12 29.92S SYLVANIA PTCLDY N/A N/A N/A W5 29.92S CLAXTON FAIR 80 64 58 SW6 29.93S ...CSRA...CENTRAL AND FAR SOUTHEAST GEORGIA... CITY SKY/WX TMP DP RH WIND PRES REMARKS THOMSON SUNNY 82 55 39 N10 29.95S AUGUSTA-BUSH SUNNY 84 59 42 W10 29.88F AUGUSTA-DANIEL MOSUNNY 83 57 41 W10 29.90F SWAINSBORO FAIR 81 57 44 W8 29.93S VIDALIA CLOUDY 82 59 44 W3 29.94S EASTMAN FAIR 83 40 21 W7 29.96S HAZLEHURST FAIR 84 58 40 NW5 29.93R ALMA PTSUNNY 82 61 48 SW8 29.94F WAYCROSS MOSUNNY 85 62 46 W7 29.95S JESUP CLOUDY 84 54 34 W10 29.94S BAXLEY FAIR 82 64 54 SW5 29.93F BRUNSWICK MOSUNNY 84 59 42 SW10 29.94F SAINT SIMONS MOSUNNY 73 63 70 S10 29.95S $$ SCZ027-028-034-036>038-045-046-048>050-GAZ119-141-282300- ...LAKE AND SUPPLEMENTAL COASTAL OBSERVATIONS... STATION/POSITION TIME TEMP WIND PRES WAVE SWELL AIR SEA DIR/SP/G HT/PER HT/PER/DIR (UTC) (F) (DEG/KT/KT) (MB) (FT/S) (FT/S/D) WINYAH BAY 2130 75 210/ 13 1012.0S LAKE MURRAY 2220 80 230/ 9/ 11 1011.2 ACE BASIN NERRS 2145 74 180/ 3 1012.0S FORT PULASKI 2200 73 66 210/ 9/ 14 1013.3 SAPELO ISLAND 2200 77 160/ 12 1014.0 $$ ANZ835-935-AMZ111-154-330-350-352-354-370-450-454-472-282300- ...C-MAN AND BUOY OBSERVATIONS... STATION/POSITION TIME TEMP WIND PRES WAVE SWELL AIR SEA DIR/SP/G HT/PER HT/PER/DIR (UTC) (F) (DEG/KT/KT) (MB) (FT/S) (FT/S/D) BUOY 41004 NOT AVBL BUOY 41008 NOT AVBL FOLLY BEACH CMAN 2200 67 220/ 10/ 13 1013.2F CAPERS NEARSHORE 2208 66 220/ 14/ 17 1012.1F FRIPP NEARSHORE 2208 66 64 190/ 14/ 17 1012.4F STATION/POSITION TIME TEMP WIND PRES WAVE SWELL AIR SEA DIR/SP/G HT/PER HT/PER/DIR (UTC) (F) (DEG/KT/KT) (MB) (FT/S) (FT/S/D) 5E ST. MARYS GA 2200 68 N/A 4/11 2/120/11 FRYING PAN BUOY NOT AVBL BUOY 41025 2050 68 75 290/ 8/ 12 1012.8 5/10 5/160/10 CAPE LOOKOUT NC 2200 68 200/ 8/ 10 1011.6R BUOY 41002 NOT AVBL BUOY 41010 NOT AVBL ST AUGUSTINE FL 2200 71 70 160/ 11/ 12 1015.5F $$

USA.gov is the U.S. government's official web portal to all federal, state and local government web resources and services.